Location: Proctor
(47.8934°N, 114.3048°W)
Time: 17:29:09
(UTC+00:00)

Transit 4A - Pass Details

Date: 17 May 2025
Orbit: 866 x 975 km, 66.8° (Epoch: 13 June)

Event Time Altitude Azimuth Distance (km) Brightness Sun altitude
Rises 04:00:59 0° 238° (WSW) 3,661 11.2 -7.6°
Reaches altitude 10° 04:03:42 10° 245° (WSW) 2,711 10.7 -8.0°
Maximum altitude 04:09:41 43° 315° (NW) 1,334 9.4 -8.7°
Drops below altitude 10° 04:15:37 10° 26° (NNE) 2,672 10.5 -9.5°
Sets 04:18:17 0° 34° (NE) 3,603 11.1 -9.8°
